Regional Weather Roundup
Issued by NWS

Home | Current Version | Previous Version | Graphics & Text | Print | Product List | Glossary On
Versions: 1 2 3 4 5 6 7 8 9 10 11 12 13 14 15 16 17 18 19 20 21 22 23 24 25 26 27 28 29 30 31 32 33 34 35 36 37 38 39 40 41 42 43 44 45 46 47 48 49 50
519
ASUS43 KFSD 162010
RWRSD

WEATHER ROUNDUP FOR SOUTH DAKOTA
NATIONAL WEATHER SERVICE SIOUX FALLS SD
200 PM CST TUE JAN 16 2018

NOTE: "FAIR" INDICATES FEW OR NO CLOUDS BELOW 12,000 FEET WITH NO
SIGNIFICANT WEATHER AND/OR OBSTRUCTIONS TO VISIBILITY.


SDZ001>005-009-010-012>017-162100-
NORTHWEST AND NORTH CENTRAL SOUTH DAKOTA

CITY           SKY/WX    TMP DP  RH WIND       PRES   REMARKS
FAITH            N/A      5  -3  69 S20       30.39F WCI -15
MOBRIDGE       SUNNY     13  -6  42 S12       30.50F WCI  -1
$$

SDZ012>016-024>037-041>051-057-063-072>074-162100-
SOUTHWEST AND SOUTH CENTRAL SOUTH DAKOTA

CITY           SKY/WX    TMP DP  RH WIND       PRES   REMARKS
RAPID CTY ARPT SUNNY     24   6  46 S15       30.35F WCI  11
PIERRE         SUNNY     14  -4  44 S10       30.56F WCI   1
CUSTER         SUNNY     30 -18  11 W10       30.25F WCI  21
ELLSWORTH AFB  SUNNY     21   5  50 S9        30.33F WCI  11
PHILIP         SUNNY     16   4  59 S12       30.49F WCI   3
PINE RIDGE     SUNNY     22   4  46 S14       30.41F WCI   9
SPEARFISH        N/A     27   7  43 CALM      30.28F
WINNER         FAIR      13   1  59 S9        30.59F WCI   1
$$

SDZ004>011-016>023-039-040-162100-
NORTHEAST SOUTH DAKOTA

CITY           SKY/WX    TMP DP  RH WIND       PRES   REMARKS
ABERDEEN       SUNNY      9  -5  53 SW14      30.63F WCI  -7
WATERTOWN      SUNNY      7   0  73 W7        30.59F WCI  -5
BROOKINGS      SUNNY      8  -1  66 W8        30.62F WCI  -4
SISSETON         N/A     10  -2  58 W7        30.63  WCI  -1
$$

SDZ017-020-022-023-036>040-048>070-162100-
SOUTHEAST SOUTH DAKOTA

CITY           SKY/WX    TMP DP  RH WIND       PRES   REMARKS
SIOUX FALLS    SUNNY      4  -2  76 NW7       30.66F WCI  -8
HURON          SUNNY      5  -3  69 SW5       30.67F WCI  -4
CHAMBERLAIN    SUNNY     10  -2  59 S8        30.63F WCI  -3
MITCHELL       SUNNY      4  -3  73 SW7       30.70F WCI  -8
YANKTON        SUNNY      7  -2  66 NW10      30.71F WCI  -8
$$

ABBREVIATIONS USED IN REMARKS
   TC - TEMPERATURE IN CELSIUS
  WCI - WIND CHILL INDEX
   HX - HEAT INDEX
  VSB - VISIBILITY





USA.gov is the U.S. government's official web portal to all federal, state and local government web resources and services.